Date,TemperatureHighF,TemperatureAvgF,TemperatureLowF,DewpointHighF,DewpointAvgF,DewpointLowF,HumidityHigh,HumidityAvg,HumidityLow,PressureMaxIn,PressureMinIn,WindSpeedMaxMPH,WindSpeedAvgMPH,GustSpeedMaxMPH,PrecipitationSumIn
2012-1-1,71,67,57,35,26,10,33,22,10,30.21,30.12,9,1,0,0.00
2012-1-2,69,62,46,44,30,14,83,31,15,30.31,30.20,9,1,0,0.00
2012-1-3,70,66,59,41,29,18,39,25,17,30.33,30.25,1,0,0,0.00
2012-1-4,74,69,64,44,30,20,34,24,16,30.34,30.25,1,0,0,0.00
2012-1-5,75,69,63,48,33,22,39,28,17,30.27,30.11,14,1,0,0.00
2012-1-6,65,59,50,48,29,3,74,36,9,30.14,30.06,9,0,0,0.00
2012-1-7,68,60,54,31,25,11,35,26,15,30.18,30.06,13,2,0,0.00
2012-1-8,61,56,52,32,24,15,39,29,20,30.27,30.15,4,0,0,0.00
2012-1-9,63,58,55,39,27,20,44,31,23,30.27,30.19,3,0,0,0.00
2012-1-10,58,53,48,41,27,17,58,38,21,30.20,30.12,3,0,0,0.00
2012-1-11,62,57,50,39,28,20,48,33,24,30.17,30.07,1,0,0,0.00
2012-1-12,63,59,56,38,27,20,43,30,22,30.16,30.05,2,0,0,0.00
2012-1-13,68,63,58,32,22,13,28,21,14,30.23,30.15,3,0,0,0.00
2012-1-14,64,58,54,36,21,11,45,25,15,30.21,30.13,2,0,0,0.00
2012-1-15,55,48,36,43,29,17,89,55,23,30.18,30.08,4,0,0,0.00
2012-1-16,50,41,36,28,20,13,73,44,32,30.38,30.18,12,1,0,0.00
2012-1-17,46,42,36,27,20,11,51,42,33,30.46,30.37,3,0,0,0.00
2012-1-18,54,48,42,42,22,7,70,39,19,30.46,30.31,3,0,0,0.00
2012-1-19,52,46,44,45,29,6,90,60,16,30.31,30.17,3,0,0,0.02
2012-1-20,51,50,47,50,49,45,97,95,90,30.19,29.96,12,2,0,4.16
2012-1-21,51,46,41,50,40,26,97,83,53,30.23,29.91,12,3,0,0.62
2012-1-22,51,46,41,46,37,26,96,74,42,30.26,30.03,15,2,0,1.01
2012-1-23,51,47,42,50,44,37,100,92,76,30.19,29.92,15,3,0,1.11
2012-1-24,60,52,43,50,43,34,83,72,54,30.44,30.19,11,1,0,0.01
2012-1-25,72,64,56,54,48,38,64,57,46,30.42,30.30,8,1,0,0.00
2012-1-26,67,62,58,52,47,40,67,60,48,30.32,30.20,13,2,0,0.00
2012-1-27,63,58,53,44,34,21,54,42,26,30.27,30.16,19,2,0,0.00
2012-1-28,67,60,52,40,29,23,44,32,26,30.32,30.25,11,0,0,0.00
2012-1-29,64,60,55,41,29,16,44,32,17,30.29,30.15,3,0,0,0.00
2012-1-30,63,58,51,47,34,15,66,44,17,30.14,30.02,6,0,0,0.00
2012-1-31,59,53,48,48,40,32,82,61,45,30.23,30.05,3,0,0,0.00
2012-2-1,60,54,50,48,34,8,76,50,14,30.30,30.21,8,0,0,0.00
2012-2-2,55,50,47,40,35,31,64,55,44,30.23,30.14,3,0,0,0.00
2012-2-7,52,49,48,45,40,-100,84,74,64,30.14,29.91,10,-18,0,0.17
2012-2-8,60,55,50,46,42,39,71,61,52,30.30,30.14,4,0,0,0.00
2012-2-9,70,61,55,49,39,31,59,46,29,30.31,30.19,5,0,0,0.00
2012-2-10,61,54,45,51,40,20,96,65,24,30.26,30.15,3,0,0,0.03
2012-2-11,53,46,42,50,44,38,97,92,77,30.15,30.07,5,0,0,0.04
2012-2-12,51,45,39,46,41,34,94,85,71,30.15,30.08,3,0,0,0.03
2012-2-13,45,41,39,41,38,34,95,91,77,30.11,30.01,9,1,0,0.73
2012-2-14,52,44,40,45,39,35,91,84,68,30.19,30.06,6,1,0,0.00
2012-2-15,50,44,38,42,32,22,93,64,40,30.20,30.08,15,2,0,0.17
2012-2-16,56,51,45,36,26,17,51,38,27,30.29,30.18,15,2,0,0.00
2012-2-17,62,55,50,47,34,17,68,46,25,30.30,30.20,5,1,0,0.00
2012-2-18,58,52,43,48,39,21,77,63,38,30.24,30.09,8,1,0,0.00
2012-2-19,51,45,40,40,32,19,92,63,38,30.19,30.12,2,0,0,0.00
2012-2-20,56,48,42,48,40,35,88,74,54,30.25,30.15,4,0,0,0.00
2012-2-21,64,56,49,48,40,36,68,57,41,30.32,30.23,10,1,0,0.00
2012-2-22,76,66,56,42,37,31,52,36,23,30.28,30.07,15,2,0,0.00
2012-2-23,77,66,61,47,34,24,47,31,20,30.06,29.91,18,3,0,0.00
2012-2-24,67,61,56,46,32,21,66,35,22,30.19,29.98,5,0,0,0.00
2012-2-25,67,58,52,43,21,6,56,25,13,30.23,30.11,19,4,0,0.00
2012-2-26,54,48,38,39,25,3,87,49,13,30.11,29.91,16,1,0,0.00
2012-2-27,46,38,35,43,33,29,93,83,76,30.08,29.91,4,0,0,0.12
2012-2-28,46,40,36,38,33,30,89,75,60,30.36,30.08,7,1,0,0.00
2012-2-29,46,43,38,46,41,33,97,94,76,30.34,30.27,9,2,0,1.14
2012-3-1,46,41,37,44,38,32,96,88,74,30.39,30.28,5,0,0,0.09
2012-3-2,55,49,39,39,31,22,73,52,30,30.39,30.27,14,0,0,0.00
2012-3-3,63,56,50,41,29,21,46,36,24,30.38,30.29,2,0,0,0.00
2012-3-4,73,66,59,39,28,13,32,24,12,30.29,30.08,2,0,0,0.00
2012-3-5,73,66,59,44,32,18,41,28,19,30.08,29.97,9,0,0,0.00
2012-3-6,58,46,37,41,30,20,85,57,23,30.04,29.93,10,2,0,0.00
2012-3-7,51,44,38,26,18,12,48,36,27,30.27,30.04,13,1,0,0.00
2012-3-8,63,55,47,35,22,10,40,28,14,30.39,30.27,1,0,0,0.00
2012-3-9,71,64,57,31,19,9,26,18,13,30.38,30.14,3,0,0,0.00
2012-3-10,62,54,41,45,31,14,91,48,17,30.13,30.00,4,0,0,0.00
2012-3-11,51,44,40,45,41,38,95,89,78,30.14,30.04,4,0,0,0.00
2012-3-12,49,45,43,47,42,38,94,88,79,30.13,30.08,4,0,0,0.01
2012-3-13,46,45,44,45,44,43,97,96,93,30.16,30.08,11,2,0,0.38
2012-3-14,50,48,46,50,48,45,98,98,97,30.27,30.14,5,1,0,0.54
2012-3-15,57,52,48,54,50,47,98,94,84,30.26,30.17,3,0,0,0.00
2012-3-16,50,49,47,49,48,46,98,97,96,30.18,29.83,8,1,0,2.50
2012-3-17,45,40,36,44,38,34,98,94,83,29.83,29.51,6,1,0,0.51
2012-3-18,44,38,34,40,34,31,94,88,75,30.05,29.79,11,2,0,0.27
2012-3-19,46,41,36,40,33,27,89,74,61,30.19,30.02,5,1,0,0.00
2012-3-20,58,50,43,48,42,30,89,73,54,30.27,30.18,5,0,0,0.00
2012-3-21,64,57,52,51,47,44,74,68,60,30.22,30.04,3,0,0,0.00
2012-3-22,56,51,42,49,44,34,84,77,70,30.06,29.96,4,1,0,0.00
2012-3-23,51,45,40,40,30,15,78,57,28,30.15,30.01,9,1,0,0.00
2012-3-24,47,43,39,43,39,14,96,86,26,30.04,29.86,15,4,0,1.79
2012-3-25,51,43,38,47,42,37,96,93,78,30.00,29.84,7,1,0,0.35
2012-3-26,48,42,39,46,40,36,94,90,83,30.21,30.01,7,1,0,0.00
2012-3-27,48,45,41,47,42,37,97,90,80,30.17,30.08,14,3,0,0.60
2012-3-28,53,49,47,53,48,44,98,96,78,30.21,30.10,12,1,0,0.22
2012-3-29,59,52,47,49,44,38,90,72,62,30.21,30.13,3,0,0,0.00
2012-3-30,58,54,50,53,45,36,86,72,55,30.16,30.02,4,0,0,0.00
2012-3-31,51,46,40,48,44,39,98,92,77,30.13,29.93,12,2,0,0.83
2012-4-1,57,46,39,44,34,21,95,66,33,30.32,30.12,12,2,0,0.06
2012-4-2,59,52,47,45,35,27,68,52,42,30.27,30.07,12,1,0,0.00
2012-4-3,62,55,48,48,42,36,86,62,48,30.12,30.05,4,0,0,0.00
2012-4-4,60,48,42,46,30,20,89,50,31,30.16,30.09,17,4,0,0.00
2012-4-5,50,43,38,38,27,21,64,54,44,30.25,30.11,17,4,0,0.00
2012-4-6,55,47,38,37,26,17,63,44,28,30.32,30.20,10,1,0,0.00
2012-4-7,60,54,48,40,26,-4,50,37,8,30.20,30.10,5,0,0,0.00
2012-4-8,63,55,46,44,19,-5,87,31,8,30.11,30.06,4,0,0,0.00
2012-4-9,61,52,42,44,22,-8,92,40,7,30.07,29.95,8,1,0,0.00
2012-4-10,50,46,43,48,44,39,96,92,72,29.98,29.90,4,0,0,1.11
2012-4-11,51,46,41,48,44,40,96,94,82,30.15,29.90,4,0,0,0.46
2012-4-12,52,47,43,48,45,42,97,95,82,30.16,29.99,12,3,0,0.81
2012-4-13,50,44,40,48,41,36,100,91,77,29.97,29.82,14,3,0,1.08
2012-4-14,53,45,39,46,40,35,89,84,76,30.23,29.97,7,1,0,0.08
2012-4-15,59,54,46,51,43,37,80,67,46,30.29,30.21,7,0,0,0.00
2012-4-16,65,60,56,50,43,39,64,55,49,30.27,30.17,3,0,0,0.00
2012-4-17,68,62,55,52,43,34,71,51,39,30.20,30.09,3,0,0,0.00
2012-4-18,75,65,56,53,39,13,62,41,16,30.14,30.06,11,1,0,0.00
2012-4-19,78,68,62,57,51,44,62,55,43,30.13,30.03,14,2,0,0.00
2012-4-20,83,74,65,61,54,49,64,52,36,30.08,29.96,7,1,0,0.00
2012-4-21,80,75,70,59,51,40,56,43,28,29.98,29.88,5,0,0,0.00
2012-4-22,74,62,49,56,50,44,90,68,36,29.96,29.89,3,0,0,0.00
2012-4-23,57,50,46,51,47,45,96,91,75,30.09,29.96,7,1,0,0.02
2012-4-24,58,53,49,51,49,47,94,87,74,30.13,30.03,7,1,0,0.00
2012-4-25,64,55,52,55,51,49,94,85,63,30.09,29.84,5,0,0,0.07
2012-4-26,58,51,46,52,46,34,97,84,61,30.19,29.87,14,2,0,0.66
2012-4-27,62,54,46,47,36,24,66,52,41,30.26,30.14,17,1,0,0.00
2012-4-28,76,65,55,55,42,26,56,44,29,30.15,29.91,12,2,0,0.00
2012-4-29,74,68,62,53,47,42,55,49,39,29.93,29.86,3,0,0,0.00
2012-4-30,74,68,57,56,49,42,68,51,42,29.99,29.91,3,0,0,0.00
2012-5-1,59,51,43,52,47,40,96,84,68,29.96,29.90,3,0,0,0.00
2012-5-2,56,48,41,48,42,31,93,81,57,30.05,29.94,2,0,0,0.00
2012-5-3,54,48,41,50,44,39,93,88,78,30.18,30.04,2,0,0,0.00
2012-5-4,63,54,47,51,44,19,94,73,26,30.22,30.15,10,1,0,0.01
2012-5-5,74,62,53,47,34,16,49,35,22,30.19,30.07,11,1,0,0.00
2012-5-6,76,67,60,44,35,28,36,30,26,30.09,30.00,13,1,0,0.00
2012-5-7,78,72,68,48,37,29,38,28,20,30.04,29.95,10,1,0,0.00
2012-5-8,78,72,68,46,36,29,37,27,20,29.98,29.93,2,0,0,0.00
2012-5-9,83,76,71,51,37,15,36,24,11,29.96,29.88,5,0,0,0.00
2012-5-10,73,66,56,52,35,8,70,38,9,29.91,29.85,2,0,0,0.00
2012-5-11,72,66,59,51,40,32,57,40,29,30.01,29.90,2,0,0,0.00
2012-5-12,76,69,60,54,43,34,57,40,29,30.07,30.00,3,0,0,0.00
2012-5-13,64,49,45,54,45,38,96,86,40,30.18,30.04,3,0,0,0.00
2012-5-14,54,50,47,50,45,40,92,83,72,30.19,30.09,4,0,0,0.00
2012-5-15,70,61,48,53,47,42,89,62,46,30.11,30.01,4,0,0,0.00
2012-5-16,85,73,62,54,43,16,51,37,11,30.02,29.93,2,0,0,0.00
2012-5-17,75,66,44,51,33,11,84,34,11,29.94,29.86,4,1,0,0.00
2012-5-18,71,59,44,50,40,22,83,52,25,29.98,29.89,4,0,0,0.00
2012-5-26,57,49,44,47,41,-100,91,80,66,30.16,0.00,4,-22,0,0.00
2012-5-27,63,55,44,50,43,34,92,67,34,30.18,30.09,10,0,0,0.01
2012-5-28,74,65,61,48,41,30,56,42,31,30.09,29.99,4,0,0,0.00
2012-5-29,71,61,57,50,46,42,67,58,43,30.07,29.98,3,0,0,0.00
2012-5-30,78,70,57,55,48,38,64,47,27,30.11,30.03,6,0,0,0.00
2012-5-31,85,78,71,52,45,39,38,31,20,30.05,29.85,6,0,0,0.00
2012-6-1,84,78,68,57,47,41,51,35,28,29.86,29.78,1,0,0,0.00
2012-6-2,85,74,57,57,45,27,68,37,19,29.92,29.82,9,1,0,0.00
2012-6-3,79,72,61,54,42,28,61,36,20,29.92,29.86,2,0,0,0.00
2012-6-4,64,56,46,55,49,38,96,79,58,30.15,29.90,5,0,0,0.14
2012-6-5,63,52,45,47,39,34,74,62,46,30.22,30.13,13,3,0,0.00
2012-6-6,72,62,50,48,38,28,54,42,25,30.15,29.98,9,1,0,0.00
2012-6-7,84,71,61,48,40,32,44,34,23,30.00,29.92,15,1,0,0.00
2012-6-8,83,70,61,47,33,9,53,28,12,29.94,29.88,13,2,0,0.00
2012-6-9,81,68,59,46,27,5,36,22,10,29.91,29.83,13,1,0,0.00
2012-6-10,79,71,65,37,31,25,29,23,18,29.93,29.85,7,0,0,0.00
2012-6-11,78,74,70,54,41,32,50,32,20,30.00,29.91,1,0,0,0.00
2012-6-12,86,75,70,56,43,31,50,32,21,29.97,29.89,15,1,0,0.00
2012-6-13,71,64,54,52,46,38,74,53,33,29.90,29.80,3,0,0,0.00
2012-6-14,63,54,46,51,47,38,95,79,44,29.91,29.81,3,0,0,0.00
2012-6-15,66,54,45,51,47,37,94,76,42,29.92,29.82,3,0,0,0.00
2012-6-16,91,79,63,60,51,44,65,39,28,29.90,29.81,2,0,0,0.00
2012-6-17,81,71,60,57,50,41,70,48,35,29.93,29.84,6,1,0,0.00
2012-6-18,76,69,61,55,46,39,72,44,34,29.94,29.87,2,0,0,0.00
2012-6-19,71,60,50,53,42,23,86,55,23,29.95,29.88,3,0,0,0.00
2012-6-20,83,74,64,54,42,28,62,33,20,29.90,29.83,3,0,0,0.00
2012-6-21,66,57,46,52,44,19,85,65,17,29.98,29.85,4,0,0,0.00
2012-6-22,62,54,44,52,45,36,89,73,50,30.03,29.91,3,0,0,0.00
2012-6-23,62,55,49,53,48,42,92,79,57,29.98,29.89,2,0,0,0.00
2012-6-24,63,54,48,49,44,40,78,67,55,30.08,29.97,4,0,0,0.00
2012-6-25,64,55,48,50,44,38,77,66,56,30.13,30.06,3,0,0,0.00
2012-6-26,73,64,55,51,43,38,64,48,34,30.06,29.90,4,0,0,0.00
2012-6-27,77,71,65,50,44,40,44,38,30,29.94,29.88,4,0,0,0.00
2012-6-28,78,70,65,54,47,41,58,44,35,30.06,29.94,3,0,0,0.00
2012-6-29,72,67,61,56,48,42,60,51,43,30.10,30.01,3,0,0,0.00
2012-6-30,73,68,62,57,51,42,70,55,44,30.02,29.93,2,0,0,0.00
2012-7-1,68,65,62,57,55,49,77,70,53,29.97,29.88,3,0,0,0.00
2012-7-2,74,68,60,57,50,34,66,54,23,29.93,29.87,6,0,0,0.00
2012-7-3,74,68,60,56,47,34,66,48,25,29.92,29.86,6,0,0,0.00
2012-7-4,66,54,47,52,47,42,98,80,41,29.99,29.85,1,0,0,0.00
2012-7-5,64,55,45,53,48,44,96,80,54,30.08,29.99,1,0,0,0.00
2012-7-6,75,67,58,56,49,44,69,53,34,30.06,30.00,3,0,0,0.00
2012-7-7,78,72,64,56,50,45,54,45,38,30.00,29.97,3,0,0,0.00
2012-7-8,80,71,61,56,48,43,59,46,28,30.05,29.97,0,0,0,0.00
2012-7-9,90,79,69,54,46,42,42,32,21,30.01,29.92,2,0,0,0.00
2012-7-10,92,85,79,52,43,33,31,23,13,29.92,29.82,2,0,0,0.00
2012-7-11,92,85,79,51,45,40,29,25,20,29.86,29.80,2,0,0,0.00
2012-7-12,88,79,72,56,48,38,51,33,26,29.86,29.77,2,0,0,0.00
2012-7-13,79,74,65,55,44,25,55,36,15,29.93,29.82,2,0,0,0.00
2012-7-14,64,56,50,53,47,34,88,73,36,30.00,29.89,3,0,0,0.00
2012-7-15,62,56,47,54,48,41,91,74,46,29.99,29.92,2,0,0,0.00
2012-7-16,59,52,47,50,48,45,95,86,71,30.01,29.93,13,2,0,0.00
2012-7-17,59,52,51,52,49,48,92,89,78,30.07,29.98,5,0,0,0.00
2012-7-18,64,62,58,53,47,40,78,60,44,30.07,30.01,5,0,0,0.00
2012-7-19,75,66,56,53,43,24,68,45,19,30.07,29.99,3,0,0,0.00
2012-7-20,84,76,68,54,39,20,37,26,15,30.06,29.97,7,0,0,0.00
2012-7-21,86,80,75,57,51,44,41,37,30,29.98,29.87,2,0,0,0.00
2012-7-22,76,68,59,56,50,45,75,55,35,29.97,29.86,3,0,0,0.00
2012-7-23,63,58,51,54,50,42,86,76,54,30.02,29.96,2,0,0,0.00
2012-7-24,61,53,47,52,48,33,95,83,40,30.06,30.00,2,0,0,0.00
2012-7-25,62,54,46,54,47,38,91,76,55,30.09,30.02,2,0,0,0.00
2012-7-26,58,51,46,52,47,42,93,88,63,30.08,30.00,2,0,0,0.00
2012-7-27,65,54,46,54,49,41,98,84,41,30.12,30.03,3,0,0,0.00
2012-7-28,87,72,65,56,44,33,54,37,21,30.07,29.99,5,0,0,0.00
2012-7-29,82,76,67,52,39,30,42,28,18,30.02,29.95,2,0,0,0.00
2012-7-30,86,79,73,49,41,32,32,26,19,29.98,29.90,2,0,0,0.00
2012-7-31,81,74,65,56,46,33,46,36,23,30.01,29.93,2,0,0,0.00
2012-8-1,81,74,63,53,42,26,51,34,14,30.07,29.99,2,0,0,0.00
2012-8-2,84,80,75,53,37,22,38,22,12,30.00,29.90,1,0,0,0.00
2012-8-3,76,67,58,56,43,27,79,48,18,29.91,29.85,1,0,0,0.00
2012-8-4,70,61,52,55,50,37,89,68,30,30.00,29.85,3,0,0,0.00
2012-8-5,80,69,58,58,50,41,79,52,28,30.08,29.99,1,0,0,0.00
2012-8-6,90,83,74,54,44,32,30,26,20,30.07,29.98,3,0,0,0.00
2012-8-7,93,86,80,53,45,40,29,24,21,29.99,29.91,2,0,0,0.00
2012-8-8,95,87,81,52,46,42,27,24,20,29.94,29.86,2,0,0,0.00
2012-8-9,98,90,83,51,45,36,29,21,14,29.90,29.80,2,0,0,0.00
2012-8-10,98,91,84,54,45,36,25,21,16,29.81,29.72,2,0,0,0.00
2012-8-11,95,87,76,55,44,34,37,23,15,29.80,29.71,1,0,0,0.00
2012-8-12,91,82,75,55,48,35,37,30,19,29.85,29.79,1,0,0,0.00
2012-8-13,90,84,79,53,44,35,32,25,16,29.84,29.78,1,0,0,0.00
2012-8-14,82,77,69,57,43,29,48,30,15,29.83,29.77,5,0,0,0.00
2012-8-15,80,73,66,52,38,29,45,29,20,29.90,29.79,5,0,0,0.00
2012-8-16,90,79,69,56,38,26,39,23,14,29.94,29.88,2,0,0,0.00
2012-8-17,92,84,75,54,45,34,33,25,15,29.94,29.86,6,0,0,0.00
2012-8-18,90,84,81,54,43,37,32,23,18,29.93,29.84,6,0,0,0.00
2012-8-19,88,83,75,53,41,20,33,24,10,29.91,29.83,4,0,0,0.00
2012-8-20,86,81,77,51,37,21,31,21,11,29.90,29.84,1,0,0,0.00
2012-8-21,78,74,68,53,43,34,48,34,22,29.92,29.85,2,0,0,0.00
2012-8-22,76,69,61,55,48,40,56,47,36,29.96,29.88,3,0,0,0.00
2012-8-23,77,69,63,56,45,32,67,44,24,29.97,29.89,1,0,0,0.00
2012-8-24,71,65,58,53,44,28,74,51,23,29.95,29.88,3,0,0,0.00
2012-8-25,58,54,48,53,49,45,95,84,69,29.94,29.87,2,0,0,0.00
2012-8-26,68,56,46,53,45,23,96,72,19,30.06,29.93,2,0,0,0.00
2012-8-27,80,73,63,47,36,22,35,27,16,30.05,29.96,3,0,0,0.00
2012-8-28,89,81,73,50,44,34,35,27,20,30.00,29.89,1,0,0,0.00
2012-8-29,88,82,75,51,44,20,34,27,10,29.89,29.79,3,0,0,0.00
2012-8-30,82,70,52,55,43,22,83,43,12,29.88,29.77,2,0,0,0.00
2012-8-31,64,56,46,53,48,24,94,77,25,30.00,29.87,1,0,0,0.00
2012-9-1,73,62,51,53,44,27,82,55,21,30.07,30.00,2,0,0,0.00
2012-9-2,80,74,68,48,39,35,35,29,20,30.01,29.92,2,0,0,0.00
2012-9-3,83,78,73,47,42,37,34,28,21,29.98,29.93,3,0,0,0.00
2012-9-4,83,75,68,50,40,32,35,28,22,30.02,29.95,1,0,0,0.00
2012-9-5,78,72,64,49,40,35,45,31,25,29.99,29.94,5,0,0,0.00
2012-9-6,77,69,64,49,39,28,48,34,23,30.02,29.94,6,0,0,0.00
2012-9-7,77,71,64,49,38,23,41,30,18,30.09,30.01,2,0,0,0.00
2012-9-8,86,78,71,58,51,40,46,38,31,30.05,29.91,2,0,0,0.00
2012-9-9,87,80,74,57,53,46,48,40,29,29.93,29.84,3,0,0,0.00
2012-9-10,76,70,60,54,49,42,72,50,35,29.92,29.85,2,0,0,0.00
2012-9-11,73,66,59,56,46,30,77,52,28,30.00,29.88,4,0,0,0.00
2012-9-12,73,65,54,63,54,37,90,70,39,30.10,29.99,4,0,0,0.00
2012-9-13,82,76,68,58,54,51,64,46,38,30.10,30.02,2,0,0,0.00
2012-9-14,88,81,74,56,50,43,44,35,23,30.06,29.99,2,0,0,0.00
2012-9-15,92,82,75,50,43,35,31,25,20,30.07,29.98,3,0,0,0.00
2012-9-16,86,77,61,49,36,29,51,24,18,30.02,29.97,4,0,0,0.00
2012-9-17,66,59,53,51,41,27,82,55,25,30.07,29.98,3,0,0,0.00
2012-9-18,80,72,62,46,31,19,32,22,14,30.10,30.01,3,0,0,0.00
2012-9-19,85,77,70,52,44,40,38,31,27,30.05,29.97,1,0,0,0.00
2012-9-20,86,79,71,49,43,40,33,29,24,30.01,29.93,3,0,0,0.00
2012-9-21,87,79,73,51,45,42,35,29,25,29.95,29.87,2,0,0,0.00
2012-9-22,82,75,71,52,45,41,41,35,30,29.93,29.88,4,0,0,0.00
2012-9-23,80,74,69,49,36,14,40,25,12,29.99,29.91,13,1,0,0.00
2012-9-24,70,64,56,53,35,13,74,39,12,29.98,29.90,2,0,0,0.00
2012-9-25,74,68,59,51,44,40,54,43,31,29.97,29.89,4,0,0,0.00
2012-9-26,79,72,66,53,43,38,51,36,29,29.90,29.84,5,0,0,0.00
2012-9-27,80,74,68,53,46,40,52,37,30,29.92,29.87,3,0,0,0.00
2012-9-28,74,66,53,56,45,32,87,49,25,29.98,29.88,4,0,0,0.00
2012-9-29,85,78,69,47,40,34,31,26,20,30.04,29.97,1,0,0,0.00
2012-9-30,96,86,79,50,44,40,27,23,18,30.04,29.94,12,1,0,0.00
2012-10-1,95,88,82,47,41,36,23,19,16,29.97,29.87,6,0,0,0.00
2012-10-2,91,86,80,48,39,32,25,19,14,29.88,29.81,3,0,0,0.00
2012-10-3,80,72,53,58,44,37,84,41,22,30.02,29.83,5,0,0,0.00
2012-10-4,66,56,51,54,50,38,95,81,41,30.19,30.01,2,0,0,0.00
2012-10-5,73,68,64,54,50,42,60,52,43,30.19,30.06,4,0,0,0.00
2012-10-6,73,67,63,51,46,39,60,48,39,30.06,29.95,3,0,0,0.00
2012-10-7,71,64,59,52,50,48,69,60,50,30.00,29.95,2,0,0,0.00
2012-10-8,66,58,55,53,48,39,82,68,52,30.08,30.00,5,0,0,0.00
2012-10-9,63,57,53,51,46,40,86,68,57,30.08,29.99,2,0,0,0.00
2012-10-10,55,53,50,53,49,46,95,86,75,30.02,29.97,3,0,0,0.22
2012-10-11,55,52,48,51,47,43,93,84,65,30.03,29.95,2,0,0,0.02
2012-10-12,56,52,50,51,49,46,94,90,82,30.27,30.04,1,0,0,0.01
2012-10-13,71,61,52,52,49,46,92,66,47,30.32,30.19,2,0,0,0.01
2012-10-14,80,72,64,54,48,45,56,44,33,30.21,30.05,1,0,0,0.00
2012-10-15,82,74,66,53,48,38,52,40,24,30.05,29.93,6,0,0,0.00
2012-10-16,87,78,72,59,51,37,58,40,22,29.98,29.83,10,1,0,0.00
2012-10-17,84,78,70,52,42,29,43,30,15,29.88,29.81,4,0,0,0.00
2012-10-18,82,74,61,62,50,33,93,50,17,30.04,29.87,6,1,0,0.00
2012-10-19,73,65,58,62,58,50,95,79,51,30.07,29.94,2,0,0,0.01
2012-10-20,70,62,48,55,47,36,91,61,31,29.93,29.82,5,0,0,0.00
2012-10-21,58,50,43,49,45,41,93,83,68,30.00,29.88,4,0,0,0.01
2012-10-22,56,50,47,53,47,41,96,89,77,30.07,29.91,14,2,0,0.71
2012-10-23,54,50,47,51,45,39,94,85,73,30.12,30.05,4,0,0,0.09
2012-10-24,59,52,46,52,43,30,87,72,53,30.27,30.11,3,0,0,0.01
2012-10-25,66,58,54,54,46,19,90,66,18,30.27,30.18,5,0,0,0.00
2012-10-26,75,65,55,48,38,27,57,37,22,30.21,30.08,9,1,0,0.00
2012-10-27,80,71,65,52,47,43,50,42,31,30.08,29.94,6,0,0,0.00
2012-10-28,76,71,67,52,47,43,51,42,37,30.03,29.94,5,0,0,0.00
2012-10-29,75,70,66,51,45,41,49,42,34,30.10,30.03,1,0,0,0.00
2012-10-30,71,67,61,52,43,37,55,42,36,30.08,30.00,1,0,0,0.00
2012-10-31,60,55,51,53,46,35,94,74,42,30.08,29.99,3,0,0,0.00
2012-11-1,59,55,53,57,53,50,96,92,81,30.10,30.04,3,0,0,0.08
2012-11-2,63,59,55,56,51,46,85,76,57,30.10,30.04,2,0,0,0.00
2012-11-3,72,64,57,49,43,32,65,47,26,30.14,30.08,6,0,0,0.00
2012-11-4,80,73,65,45,37,30,36,27,19,30.19,30.13,2,0,0,0.00
2012-11-5,86,78,74,40,33,27,23,19,16,30.15,30.05,3,0,0,0.00
2012-11-6,82,77,70,43,33,29,27,21,17,30.08,30.02,2,0,0,0.00
2012-11-7,71,60,48,51,41,29,94,57,23,30.05,29.96,2,0,0,0.00
2012-11-8,56,45,42,47,34,-100,95,80,51,30.05,29.94,6,1,0,0.10
2012-11-9,51,44,40,42,37,29,89,77,60,30.08,29.97,10,1,0,0.22
2012-11-10,52,45,40,43,36,28,86,73,54,30.31,30.07,12,2,0,0.07
2012-11-11,52,48,43,37,28,19,63,48,36,30.42,30.31,3,0,0,0.00
2012-11-12,63,55,47,39,29,21,48,37,26,30.42,30.25,1,0,0,0.00
2012-11-13,69,64,57,36,31,21,34,29,25,30.27,30.08,3,0,0,0.00
2012-11-14,72,66,63,39,30,21,32,27,19,30.11,30.03,3,0,0,0.00
2012-11-15,63,57,52,49,37,20,87,54,20,30.07,29.99,11,2,0,0.00
2012-11-16,53,9,52,51,-75,-100,95,18,89,30.07,29.97,20,9,0,0.93
2012-11-17,55,45,48,54,32,-100,98,92,97,30.13,29.93,23,5,0,1.81
2012-11-18,55,51,49,52,49,41,98,92,69,30.22,30.10,14,2,0,0.73
2012-11-20,57,53,52,56,49,-100,96,90,87,30.25,30.17,2,-17,0,0.01
2012-11-21,58,55,52,57,50,41,98,86,60,30.24,30.16,10,0,0,0.37
2012-11-22,62,58,53,51,45,32,72,64,33,30.24,30.16,2,0,0,0.00
2012-11-23,75,67,58,46,38,32,58,36,25,30.24,30.16,5,0,0,0.00
2012-11-24,74,69,66,47,37,31,41,31,25,30.18,29.99,4,0,0,0.00
2012-11-25,67,65,61,51,39,33,61,40,30,29.99,29.90,2,0,0,0.00
2012-11-26,61,52,46,53,43,36,99,76,40,30.14,29.97,4,0,0,0.00
2012-11-27,54,49,46,50,47,45,96,91,79,30.20,30.09,7,2,0,0.00
2012-11-28,54,52,49,53,50,45,97,93,78,30.16,30.00,26,7,0,1.10
2012-11-29,56,53,50,55,52,49,100,97,96,30.18,30.05,18,7,0,0.30
2012-11-30,55,36,50,55,4,-100,99,93,98,30.15,30.00,20,6,0,3.90
2012-12-1,51,2,51,51,-95,-100,99,28,98,30.18,30.12,14,3,0,1.06
2012-12-2,-200,0,200,-100,-100,-100,0,0,100,30.11,30.04,0,0,0,2.55
2012-12-3,55,38,46,51,8,-100,99,65,34,30.26,30.10,3,0,0,0.00
2012-12-4,57,51,46,51,46,23,96,82,33,30.34,30.24,4,0,0,0.00
2012-12-5,59,56,54,58,55,45,98,94,69,30.28,30.11,0,0,0,0.51
2012-12-6,61,58,55,56,49,29,98,75,34,30.13,30.04,5,0,0,0.00
2012-12-7,70,59,48,54,35,11,86,46,13,30.13,30.06,16,1,0,0.00
2012-12-8,64,57,53,50,30,7,73,37,13,30.07,29.98,4,0,0,0.00
2012-12-9,64,58,56,52,37,27,77,47,31,30.19,30.06,9,0,0,0.00
2012-12-10,65,61,56,41,36,32,46,39,34,30.23,30.13,3,0,0,0.00
2012-12-11,64,56,45,52,40,25,96,62,26,30.13,29.93,1,0,0,0.00
2012-12-12,50,44,41,44,40,33,96,84,69,29.96,29.89,7,1,0,0.37
2012-12-13,49,43,40,40,33,29,86,69,60,29.95,29.87,9,1,0,0.10
2012-12-14,46,42,40,40,34,24,89,72,50,30.09,29.89,4,0,0,0.01
2012-12-15,46,42,40,42,37,31,92,81,68,30.18,30.07,4,0,0,0.17
2012-12-16,49,47,44,48,46,42,97,96,91,30.20,30.08,4,0,0,0.18
2012-12-17,50,42,43,50,30,-100,98,98,97,30.20,30.05,7,1,0,0.65
2012-12-18,48,42,38,42,30,25,98,65,42,30.22,30.03,11,1,0,0.00
2012-12-19,48,42,37,27,20,13,58,42,29,30.37,30.22,12,1,0,0.00
2012-12-20,50,44,39,35,25,11,75,48,27,30.31,30.16,6,1,0,0.00
2012-12-21,47,45,41,46,41,33,100,88,70,30.15,30.04,14,4,0,0.73
2012-12-22,49,26,44,48,-19,-100,98,96,90,30.22,30.04,17,3,0,0.91
2012-12-23,52,48,43,51,47,42,98,97,96,30.22,30.05,12,4,0,4.01
2012-12-24,51,47,42,47,40,35,98,79,67,30.23,30.09,12,1,0,0.00
2012-12-25,52,45,42,44,40,32,96,85,54,30.20,29.95,11,1,0,1.05
2012-12-26,49,42,40,45,40,38,96,91,84,30.17,29.98,5,1,0,0.21
2012-12-27,50,44,40,41,36,32,94,73,58,30.23,30.14,9,1,0,0.01
2012-12-28,48,42,39,45,38,33,91,86,68,30.24,30.08,3,0,0,0.08
2012-12-29,42,40,38,40,38,36,94,92,88,30.08,30.02,5,1,0,0.98
2012-12-30,52,45,42,42,33,24,80,63,49,30.23,30.09,7,0,0,0.00
2012-12-31,47,43,40,37,30,19,74,61,41,30.34,30.23,10,0,0,0.00
2013-1-1,48,44,41,40,33,23,75,65,43,30.31,30.21,9,0,0,0.00